Location: Brede
(50.9167°N, 0.6000°E)
Time: 02:29:39
(UTC+00:00)

UNK - Pass Details

Date: 08 August 2020
Orbit: 665 x 687 km, 98.1° (Epoch: 19 September)

Event Time Altitude Azimuth Distance (km) Brightness Sun altitude
Exits shadow 01:27:35 38° 157° (SSE) 1,047 4.3 -20.5°
Maximum altitude 01:29:23 83° 75° (ENE) 700 3.7 -20.4°
Drops below altitude 10° 01:34:06 10° 347° (NNW) 2,150 7.1 -20.1°
Sets 01:36:22 0° 347° (NNW) 3,070 8.0 -20.0°
